| time (UTC) | temp F | wind direction | speed MPH | gust MPH | rain 1hr in | rain 24hr in | rain mn in | humidity % | barometer mb |
| 20260504225949 | 80 | 191 | 14.0 | 30.0 | 0.00 | 0.00 | 0.00 | 64 | 1004.4 |
| 20260504224950 | 80 | 191 | 18.0 | 29.0 | 0.00 | 0.00 | 0.00 | 62 | 1004.4 |
| 20260504224450 | 80 | 176 | 18.0 | 26.0 | 0.00 | 0.00 | 0.00 | 62 | 1004.5 |
| 20260504223949 | 80 | 167 | 16.0 | 33.0 | 0.00 | 0.00 | 0.00 | 63 | 1004.5 |
| 20260504223450 | 80 | 197 | 20.0 | 33.0 | 0.00 | 0.00 | 0.00 | 62 | 1004.6 |
| 20260504222950 | 80 | 176 | 16.0 | 26.0 | 0.00 | 0.00 | 0.00 | 63 | 1004.5 |
| 20260504222450 | 81 | 162 | 16.0 | 26.0 | 0.00 | 0.00 | 0.00 | 62 | 1004.5 |
| 20260504221950 | 80 | 196 | 20.0 | 26.0 | 0.00 | 0.00 | 0.00 | 62 | 1004.5 |
| 20260504221450 | 80 | 156 | 17.0 | 33.0 | 0.00 | 0.00 | 0.00 | 62 | 1004.4 |
| 20260504220950 | 81 | 178 | 19.0 | 33.0 | 0.00 | 0.00 | 0.00 | 62 | 1004.5 |
| 20260504220450 | 81 | 184 | 17.0 | 26.0 | 0.00 | 0.00 | 0.00 | 62 | 1004.5 |
| 20260504215950 | 81 | 175 | 14.0 | 25.0 | 0.00 | 0.00 | 0.00 | 62 | 1004.6 |
| 20260504215450 | 81 | 166 | 16.0 | 24.0 | 0.00 | 0.00 | 0.00 | 61 | 1004.6 |
| 20260504214950 | 81 | 163 | 16.0 | 25.0 | 0.00 | 0.00 | 0.00 | 62 | 1004.6 |
| 20260504214450 | 81 | 186 | 16.0 | 25.0 | 0.00 | 0.00 | 0.00 | 62 | 1004.9 |
| 20260504213450 | 80 | 203 | 15.0 | 23.0 | 0.00 | 0.00 | 0.00 | 62 | 1005.1 |
| 20260504212950 | 80 | 173 | 15.0 | 26.0 | 0.00 | 0.00 | 0.00 | 62 | 1005.3 |
| 20260504212450 | 80 | 183 | 16.0 | 26.0 | 0.00 | 0.00 | 0.00 | 62 | 1005.5 |
| 20260504211951 | 80 | 175 | 16.0 | 25.0 | 0.00 | 0.00 | 0.00 | 61 | 1005.5 |
| 20260504210950 | 80 | 178 | 16.0 | 26.0 | 0.00 | 0.00 | 0.00 | 61 | 1005.6 |
| 20260504210451 | 80 | 180 | 17.0 | 26.0 | 0.00 | 0.00 | 0.00 | 62 | 1005.7 |
| 20260504205951 | 80 | 184 | 17.0 | 26.0 | 0.00 | 0.00 | 0.00 | 61 | 1005.8 |
| 20260504204951 | 80 | 194 | 18.0 | 28.0 | 0.00 | 0.00 | 0.00 | 61 | 1006.0 |
| 20260504204450 | 80 | 180 | 17.0 | 26.0 | 0.00 | 0.00 | 0.00 | 61 | 1006.1 |
| 20260504203951 | 79 | 190 | 17.0 | 29.0 | 0.00 | 0.00 | 0.00 | 61 | 1006.3 |
| 20260504203451 | 80 | 176 | 18.0 | 29.0 | 0.00 | 0.00 | 0.00 | 60 | 1006.4 |
| 20260504202451 | 80 | 199 | 15.0 | 26.0 | 0.00 | 0.00 | 0.00 | 61 | 1006.6 |
| 20260504201950 | 80 | 201 | 18.0 | 28.0 | 0.00 | 0.00 | 0.00 | 61 | 1006.6 |
| 20260504201451 | 80 | 208 | 13.0 | 28.0 | 0.00 | 0.00 | 0.00 | 61 | 1006.6 |
| 20260504200951 | 79 | 186 | 18.0 | 28.0 | 0.00 | 0.00 | 0.00 | 60 | 1006.8 |
| 20260504200450 | 79 | 198 | 14.0 | 25.0 | 0.00 | 0.00 | 0.00 | 60 | 1006.9 |
| 20260504195450 | 79 | 196 | 16.0 | 24.0 | 0.00 | 0.00 | 0.00 | 61 | 1007.2 |
| 20260504194951 | 79 | 185 | 16.0 | 26.0 | 0.00 | 0.00 | 0.00 | 61 | 1007.2 |
| 20260504194451 | 79 | 167 | 18.0 | 26.0 | 0.00 | 0.00 | 0.00 | 60 | 1007.3 |
| 20260504193951 | 79 | 198 | 17.0 | 24.0 | 0.00 | 0.00 | 0.00 | 60 | 1007.4 |
| 20260504193451 | 79 | 196 | 15.0 | 26.0 | 0.00 | 0.00 | 0.00 | 62 | 1007.4 |
| 20260504192951 | 78 | 203 | 19.0 | 26.0 | 0.00 | 0.00 | 0.00 | 61 | 1007.5 |
| 20260504191450 | 77 | 188 | 13.0 | 25.0 | 0.00 | 0.00 | 0.00 | 63 | 1007.7 |
| 20260504185951 | 77 | 196 | 16.0 | 25.0 | 0.00 | 0.00 | 0.00 | 62 | 1008.1 |
| 20260504185451 | 77 | 196 | 17.0 | 25.0 | 0.00 | 0.00 | 0.00 | 61 | 1008.1 |
| 20260504184951 | 78 | 189 | 18.0 | 25.0 | 0.00 | 0.00 | 0.00 | 62 | 1008.1 |
| 20260504184451 | 78 | 202 | 13.0 | 22.0 | 0.00 | 0.00 | 0.00 | 63 | 1008.2 |
| 20260504183952 | 77 | 207 | 14.0 | 25.0 | 0.00 | 0.00 | 0.00 | 63 | 1008.2 |
| 20260504182951 | 77 | 182 | 16.0 | 26.0 | 0.00 | 0.00 | 0.00 | 63 | 1008.4 |
| 20260504182451 | 77 | 174 | 13.0 | 28.0 | 0.00 | 0.00 | 0.00 | 63 | 1008.4 |
| 20260504181951 | 77 | 196 | 17.0 | 28.0 | 0.00 | 0.00 | 0.00 | 62 | 1008.6 |
| 20260504181452 | 77 | 193 | 15.0 | 25.0 | 0.00 | 0.00 | 0.00 | 62 | 1008.7 |
| 20260504180952 | 76 | 190 | 13.0 | 25.0 | 0.00 | 0.00 | 0.00 | 62 | 1008.8 |
| 20260504180452 | 76 | 193 | 15.0 | 25.0 | 0.00 | 0.00 | 0.00 | 62 | 1009.0 |
| 20260504174951 | 76 | 209 | 16.0 | 25.0 | 0.00 | 0.00 | 0.00 | 62 | 1009.2 |
| 20260504173951 | 75 | 202 | 17.0 | 28.0 | 0.00 | 0.00 | 0.00 | 63 | 1009.2 |
| 20260504173452 | 75 | 195 | 19.0 | 28.0 | 0.00 | 0.00 | 0.00 | 62 | 1009.1 |
| 20260504172952 | 75 | 182 | 18.0 | 28.0 | 0.00 | 0.00 | 0.00 | 63 | 1009.4 |
| 20260504172452 | 75 | 174 | 17.0 | 33.0 | 0.00 | 0.00 | 0.00 | 63 | 1009.4 |
| 20260504171952 | 75 | 205 | 17.0 | 33.0 | 0.00 | 0.00 | 0.00 | 63 | 1009.4 |
| 20260504171451 | 75 | 176 | 18.0 | 26.0 | 0.00 | 0.00 | 0.00 | 63 | 1009.5 |
| 20260504170952 | 75 | 203 | 17.0 | 24.0 | 0.00 | 0.00 | 0.00 | 63 | 1009.6 |
| 20260504170452 | 75 | 216 | 16.0 | 26.0 | 0.00 | 0.00 | 0.00 | 63 | 1009.5 |
| 20260504150453 | 70 | 208 | 18.0 | 25.0 | 0.00 | 0.00 | 0.00 | 69 | 1011.0 |
| 20260504140952 | 66 | 198 | 16.0 | 23.0 | 0.00 | 0.00 | 0.00 | 74 | 1011.1 |
| 20260504140452 | 66 | 201 | 18.0 | 24.0 | 0.00 | 0.00 | 0.00 | 74 | 1011.2 |
| 20260504130454 | 63 | 190 | 12.0 | 17.0 | 0.00 | 0.00 | 0.00 | 76 | 1011.5 |
| 20260504110454 | 61 | 182 | 6.0 | 9.0 | 0.00 | 0.00 | 0.00 | 77 | 1011.2 |
| 20260504100456 | 62 | 196 | 6.0 | 10.0 | 0.00 | 0.00 | 0.00 | 73 | 1011.4 |
| 20260504081955 | 63 | 195 | 6.0 | 10.0 | 0.00 | 0.00 | 0.00 | 68 | 1012.0 |
| 20260504081455 | 63 | 196 | 7.0 | 12.0 | 0.00 | 0.00 | 0.00 | 68 | 1012.1 |
| 20260504080955 | 63 | 195 | 7.0 | 12.0 | 0.00 | 0.00 | 0.00 | 68 | 1012.1 |
| 20260504080455 | 63 | 194 | 7.0 | 10.0 | 0.00 | 0.00 | 0.00 | 68 | 1012.2 |
| 20260504050456 | 65 | 197 | 6.0 | 9.0 | 0.00 | 0.00 | 0.00 | 63 | 1014.1 |
| 20260504045955 | 65 | 193 | 6.0 | 9.0 | 0.00 | 0.00 | 0.00 | 63 | 1014.1 |
| 20260504045458 | 65 | 193 | 5.0 | 8.0 | 0.00 | 0.00 | 0.00 | 63 | 1014.2 |
| 20260504044957 | 64 | 196 | 6.0 | 8.0 | 0.00 | 0.00 | 0.00 | 63 | 1014.2 |
| 20260504044456 | 65 | 198 | 5.0 | 7.0 | 0.00 | 0.00 | 0.00 | 62 | 1014.2 |
| 20260504043957 | 65 | 194 | 5.0 | 6.0 | 0.00 | 0.00 | 0.00 | 62 | 1014.3 |
| 20260504043456 | 65 | 194 | 3.0 | 5.0 | 0.00 | 0.00 | 0.00 | 61 | 1014.4 |
| 20260504042956 | 65 | 194 | 3.0 | 5.0 | 0.00 | 0.00 | 0.00 | 61 | 1014.4 |
| 20260504042456 | 65 | 194 | 5.0 | 5.0 | 0.00 | 0.00 | 0.00 | 60 | 1014.4 |
| 20260504041957 | 65 | 194 | 5.0 | 5.0 | 0.00 | 0.00 | 0.00 | 60 | 1014.4 |
| 20260504041456 | 66 | 194 | 3.0 | 5.0 | 0.00 | 0.00 | 0.00 | 59 | 1014.5 |
| 20260504040956 | 66 | 194 | 3.0 | 5.0 | 0.00 | 0.00 | 0.00 | 59 | 1014.5 |
| 20260504035956 | 66 | 194 | 3.0 | 6.0 | 0.00 | 0.00 | 0.00 | 58 | 1014.6 |
| 20260504035457 | 66 | 186 | 5.0 | 6.0 | 0.00 | 0.00 | 0.00 | 57 | 1014.5 |
| 20260504034956 | 66 | 180 | 3.0 | 6.0 | 0.00 | 0.00 | 0.00 | 57 | 1014.5 |
| 20260504034457 | 67 | 188 | 3.0 | 5.0 | 0.00 | 0.00 | 0.00 | 56 | 1014.4 |
| 20260504033957 | 67 | 188 | 3.0 | 5.0 | 0.00 | 0.00 | 0.00 | 56 | 1014.4 |
| 20260504032957 | 67 | 194 | 5.0 | 7.0 | 0.00 | 0.00 | 0.00 | 55 | 1014.4 |
| 20260504032456 | 68 | 194 | 5.0 | 8.0 | 0.00 | 0.00 | 0.00 | 54 | 1014.3 |
| 20260504031456 | 68 | 192 | 6.0 | 9.0 | 0.00 | 0.00 | 0.00 | 53 | 1014.3 |
| 20260504030457 | 68 | 193 | 4.0 | 7.0 | 0.00 | 0.00 | 0.00 | 52 | 1014.3 |
| 20260504025957 | 69 | 190 | 5.0 | 7.0 | 0.00 | 0.00 | 0.00 | 52 | 1014.3 |
| 20260504025457 | 69 | 189 | 6.0 | 8.0 | 0.00 | 0.00 | 0.00 | 52 | 1014.2 |
| 20260504024957 | 69 | 191 | 5.0 | 12.0 | 0.00 | 0.00 | 0.00 | 51 | 1014.2 |
| 20260504024456 | 69 | 187 | 6.0 | 12.0 | 0.00 | 0.00 | 0.00 | 51 | 1014.2 |
| 20260504023957 | 69 | 185 | 6.0 | 10.0 | 0.00 | 0.00 | 0.00 | 51 | 1014.1 |
| 20260504022958 | 69 | 185 | 6.0 | 9.0 | 0.00 | 0.00 | 0.00 | 51 | 1014.2 |
| 20260504022456 | 69 | 186 | 6.0 | 9.0 | 0.00 | 0.00 | 0.00 | 51 | 1014.2 |
| 20260504021957 | 69 | 186 | 6.0 | 10.0 | 0.00 | 0.00 | 0.00 | 51 | 1014.1 |
| 20260504021457 | 69 | 185 | 6.0 | 10.0 | 0.00 | 0.00 | 0.00 | 51 | 1014.1 |
| 20260504020957 | 69 | 178 | 5.0 | 10.0 | 0.00 | 0.00 | 0.00 | 52 | 1014.1 |
| 20260504020457 | 69 | 182 | 4.0 | 7.0 | 0.00 | 0.00 | 0.00 | 51 | 1014.0 |
| 20260504015957 | 70 | 189 | 3.0 | 5.0 | 0.00 | 0.00 | 0.00 | 51 | 1014.0 |
| 20260504014959 | 71 | 176 | 3.0 | 6.0 | 0.00 | 0.00 | 0.00 | 49 | 1013.9 |
| 20260504014458 | 71 | 182 | 4.0 | 7.0 | 0.00 | 0.00 | 0.00 | 49 | 1013.9 |
| 20260504012958 | 72 | 182 | 6.0 | 9.0 | 0.00 | 0.00 | 0.00 | 47 | 1013.7 |
| 20260504011957 | 72 | 181 | 5.0 | 7.0 | 0.00 | 0.00 | 0.00 | 47 | 1013.8 |
| 20260504011459 | 73 | 188 | 5.0 | 9.0 | 0.00 | 0.00 | 0.00 | 47 | 1013.7 |
| 20260504010957 | 73 | 184 | 5.0 | 9.0 | 0.00 | 0.00 | 0.00 | 46 | 1013.7 |
| 20260504010458 | 73 | 183 | 6.0 | 9.0 | 0.00 | 0.00 | 0.00 | 45 | 1013.7 |
| 20260504005958 | 74 | 184 | 6.0 | 10.0 | 0.00 | 0.00 | 0.00 | 45 | 1013.7 |
| 20260504004957 | 75 | 185 | 7.0 | 10.0 | 0.00 | 0.00 | 0.00 | 43 | 1013.5 |
| 20260504004457 | 75 | 187 | 7.0 | 13.0 | 0.00 | 0.00 | 0.00 | 43 | 1013.5 |
| 20260504003959 | 76 | 186 | 8.0 | 15.0 | 0.00 | 0.00 | 0.00 | 42 | 1013.6 |
| 20260504003458 | 76 | 195 | 10.0 | 16.0 | 0.00 | 0.00 | 0.00 | 41 | 1013.6 |
| 20260504003000 | 77 | 186 | 7.0 | 16.0 | 0.00 | 0.00 | 0.00 | 41 | 1013.6 |
| 20260504002457 | 77 | 187 | 9.0 | 16.0 | 0.00 | 0.00 | 0.00 | 41 | 1013.7 |
| 20260504001457 | 77 | 190 | 7.0 | 12.0 | 0.00 | 0.00 | 0.00 | 41 | 1013.7 |
| 20260503235958 | 78 | 194 | 6.0 | 13.0 | 0.00 | 0.00 | 0.00 | 41 | 1013.8 |
| 20260503234458 | 79 | 190 | 6.0 | 13.0 | 0.00 | 0.00 | 0.00 | 39 | 1013.9 |
| 20260503233958 | 79 | 206 | 9.0 | 17.0 | 0.00 | 0.00 | 0.00 | 38 | 1014.1 |
| 20260503233458 | 79 | 214 | 10.0 | 17.0 | 0.00 | 0.00 | 0.00 | 37 | 1014.0 |
| 20260503232958 | 79 | 215 | 8.0 | 16.0 | 0.00 | 0.00 | 0.00 | 36 | 1014.0 |
| 20260503232457 | 79 | 214 | 9.0 | 17.0 | 0.00 | 0.00 | 0.00 | 35 | 1014.0 |
| 20260503232000 | 80 | 213 | 13.0 | 17.0 | 0.00 | 0.00 | 0.00 | 35 | 1014.1 |